Location: Unspecified
(0.0000°N, 0.0000°E)
Time: 06:32:51
(UTC+00:00)

deb Explorer IX - Pass Details

Date: 26 November 2019
Orbit: 546 x 1104 km, 38.8° (Epoch: 11 December)

Event Time Altitude Azimuth Distance (km) Brightness Sun altitude
Rises 17:43:26 0° 222° (SW) 3,467 ? 0.9°
Reaches altitude 10° 17:45:53 10° 218° (SW) 2,607 ? 0.3°
Maximum altitude 17:52:11 63° 138° (SE) 1,113 ? -1.1°
Drops below altitude 10° 17:59:14 10° 58° (ENE) 2,907 ? -2.8°
Enters shadow 18:01:19 - 56° (NE) 3,617 ? -3.3°
Sets 18:02:06 0° 55° (NE) 3,891 - -3.5°
